Location: BGSU Observatory
(41.3799°N, 83.6397°W)
Time: 07:11:33
(UTC-04:00)

Amateur Radio Satellites - All Passes

Search period start: 18 October 2017 06:41
Search period end: 19 October 2017 06:41
Location: BGSU Observatory, 41.3799°N, 83.6397°W

Satellite Date Start Highest point End Downlink Frequencies (MHz)
Time Altitude Azimuth
STRAND 1 18 Oct 06:44:08 06:46:42 14° 60° (ENE) 06:49:16 437.568
XW-2D 18 Oct 06:46:45 06:49:06 16° 93° (E) 06:51:28 145.860 - 145.880
O/OREOS (USA 219) 18 Oct 06:51:11 06:54:33 20° 55° (NE) 06:57:53 437.305
NUDT-PHONESAT 18 Oct 06:58:25 07:00:28 14° 92° (E) 07:02:32 437.300
XW-2B 18 Oct 06:59:38 07:02:34 22° 95° (E) 07:05:30 145.730 - 145.750
KKS-1 18 Oct 07:03:14 07:06:10 17° 267° (W) 07:09:07 437.445
AO-7 18 Oct 07:06:43 07:13:19 28° 305° (NW) 07:19:56 .
RS-15 18 Oct 07:18:30 07:27:38 23° 5° (N) 07:36:29 29.354- 29.394
XW-2C 18 Oct 07:22:13 07:25:48 42° 99° (E) 07:29:20 145.795 - 145.815
STARS 18 Oct 07:43:51 07:46:29 16° 268° (W) 07:49:07 437.465
CUBEBUG 2 18 Oct 07:47:38 07:49:00 11° 88° (E) 07:50:21 437.445
HO-68 18 Oct 07:51:09 07:57:16 29° 95° (E) 08:03:18 435.675
NO-84 18 Oct 08:03:07 08:05:02 13° 350° (N) 08:06:56 435.350 FM
LilacSat-2 18 Oct 08:09:08 08:12:43 42° 287° (WNW) 08:16:17 437.200
XW-2F 18 Oct 08:09:32 08:13:08 48° 286° (WNW) 08:16:43 145.980 - 146.000
KAITUO 1B 18 Oct 08:12:17 08:15:54 58° 286° (WNW) 08:19:31 145.475/437.950
CUTE-I 18 Oct 08:15:32 08:20:55 75° 286° (WNW) 08:26:16 437.470
SO-50 18 Oct 08:15:52 08:20:15 59° 119° (ESE) 08:24:42 436.795
FO-29 18 Oct 08:16:41 08:19:50 16° 59° (ENE) 08:23:06 435.910
DOVE 4 18 Oct 08:18:13 08:21:05 16° 296° (WNW) 08:24:02 437.250
XW-2D 18 Oct 08:20:00 08:23:22 32° 289° (WNW) 08:26:44 145.860 - 145.880
STRAND 1 18 Oct 08:20:04 08:25:11 79° 257° (WSW) 08:30:22 437.568
PCSat 18 Oct 08:26:45 08:29:28 14° 103° (ESE) 08:32:12 145.827
UWE-3 18 Oct 08:29:44 08:32:51 18° 92° (E) 08:35:54 435.000/436.395/437.385
O/OREOS (USA 219) 18 Oct 08:29:47 08:34:13 46° 253° (WSW) 08:38:35 437.305
NUDT-PHONESAT 18 Oct 08:31:06 08:34:28 34° 288° (WNW) 08:37:47 437.300
XW-2B 18 Oct 08:33:37 08:36:41 24° 291° (WNW) 08:39:43 145.730 - 145.750
CUTE 1.7 + AOD 2 18 Oct 08:47:49 08:52:02 88° 103° (ESE) 08:56:15 437.475
Oscar 11 18 Oct 08:57:00 08:57:23 10° 89° (E) 08:57:45 .
XW-2C 18 Oct 08:57:44 08:59:35 13° 295° (WNW) 09:01:27 145.795 - 145.815
SEEDS 18 Oct 09:00:01 09:04:11 74° 102° (ESE) 09:08:21 437.485
XW-2A 18 Oct 09:11:13 09:14:32 58° 101° (E) 09:17:49 145.665 - 145.685
CUBEBUG 2 18 Oct 09:21:28 09:26:09 72° 284° (WNW) 09:30:39 437.445
AO-73 18 Oct 09:28:07 09:32:10 35° 97° (E) 09:36:04 145.935
AAUSAT CUBESAT 2 18 Oct 09:31:46 09:35:53 73° 102° (ESE) 09:40:00 437.432
RS-15 18 Oct 09:33:23 09:44:40 42° 39° (NE) 09:55:19 29.354- 29.394
HO-68 18 Oct 09:38:17 09:45:16 55° 292° (WNW) 09:52:13 435.675
NO-84 18 Oct 09:41:57 09:43:54 13° 11° (NNE) 09:45:47 435.350 FM
ZACube-1 18 Oct 09:48:21 09:52:46 69° 101° (E) 09:57:02 437.345
SO-50 18 Oct 09:57:51 10:01:05 19° 318° (NW) 10:04:20 436.795
UNISAT 6 18 Oct 09:58:43 10:02:55 35° 70° (ENE) 10:07:11 437.425
CUTE-I 18 Oct 09:58:53 10:00:01 11° 304° (WNW) 10:01:10 437.470
FO-29 18 Oct 09:59:08 10:04:17 66° 259° (WSW) 10:09:45 435.910
UWE-3 18 Oct 10:05:13 10:09:30 42° 289° (WNW) 10:13:39 435.000/436.395/437.385
PCSat 18 Oct 10:06:44 10:12:08 78° 300° (WNW) 10:17:36 145.827
YUBILEINY 18 Oct 10:08:40 10:16:52 49° 89° (E) 10:25:07 435.215
TIGRISAT 18 Oct 10:13:58 10:18:22 46° 72° (ENE) 10:22:53 435.000
PRISM 18 Oct 10:15:28 10:18:34 22° 67° (ENE) 10:21:41 437.425
Oscar 11 18 Oct 10:29:40 10:33:58 69° 285° (WNW) 10:38:13 .
SEEDS 18 Oct 10:38:43 10:39:15 10° 298° (WNW) 10:39:47 437.485
nSIGHT-1 18 Oct 10:41:17 10:42:55 13° 130° (SE) 10:44:33 .
AIST 2D 18 Oct 10:58:35 11:00:12 13° 66° (ENE) 11:01:48 435.315
AO-73 18 Oct 11:04:51 11:08:08 21° 294° (WNW) 11:11:21 145.935
ISS 18 Oct 11:06:51 11:09:23 21° 133° (SE) 11:11:56 437.550
EO-88 18 Oct 11:09:41 11:13:03 35° 98° (E) 11:16:23 145.990 - 145.960
AAUSAT CUBESAT 2 18 Oct 11:10:26 11:10:43 10° 298° (WNW) 11:11:00 437.432
Max Valier Satellite 18 Oct 11:13:39 11:17:17 58° 100° (E) 11:20:53 145.860
NO-84 18 Oct 11:18:44 11:22:17 35° 32° (NNE) 11:25:33 435.350 FM
DELFI C3 18 Oct 11:22:50 11:26:47 77° 285° (WNW) 11:30:45 145.870
ZACube-1 18 Oct 11:26:44 11:28:24 12° 298° (WNW) 11:30:04 437.345
EO-79 18 Oct 11:28:00 11:30:11 14° 63° (ENE) 11:32:23 145.935-145.965
HO-68 18 Oct 11:29:48 11:31:25 11° 312° (NW) 11:33:03 435.675
POLYITAN 1 18 Oct 11:31:41 11:34:10 15° 64° (ENE) 11:36:40 437.675
UNISAT 6 18 Oct 11:35:57 11:39:40 24° 266° (W) 11:43:26 437.425
RS-15 18 Oct 11:46:12 11:57:57 69° 245° (WSW) 12:09:03 29.354- 29.394
PRISM 18 Oct 11:50:07 11:53:40 29° 263° (W) 11:57:15 437.425
QB50P2 18 Oct 11:50:31 11:54:04 26° 68° (ENE) 11:57:38 145.880/145.840
TIGRISAT 18 Oct 11:52:07 11:55:17 18° 268° (W) 11:58:29 435.000
PCSat 18 Oct 11:53:24 11:56:27 15° 320° (NW) 11:59:30 145.827
NANOSAT C BR1 18 Oct 11:56:25 11:59:51 24° 68° (ENE) 12:03:18 145.865
YUBILEINY 18 Oct 12:06:01 12:13:51 37° 289° (WNW) 12:21:45 435.215
LO-87 18 Oct 12:07:27 12:10:21 22° 95° (E) 12:13:14 145.935 - 145.965
DUCHIFAT 1 18 Oct 12:08:18 12:11:56 28° 69° (ENE) 12:15:35 145.980
ESTCUBE 1 18 Oct 12:09:29 12:12:38 18° 93° (E) 12:15:45 437.505/2401.250
nSIGHT-1 18 Oct 12:15:39 12:18:49 66° 325° (NW) 12:22:01 .
BEESAT 3 18 Oct 12:24:53 12:25:28 10° 108° (ESE) 12:26:04 437.485
BUGSAT 1 18 Oct 12:27:40 12:29:27 12° 62° (ENE) 12:31:14 437.445
AIST 2D 18 Oct 12:29:43 12:33:01 38° 262° (W) 12:36:19 435.315
ISS 18 Oct 12:42:31 12:45:39 45° 330° (NNW) 12:48:49 437.550
EO-88 18 Oct 12:44:19 12:46:23 15° 294° (WNW) 12:48:27 145.990 - 145.960
NO-84 18 Oct 12:56:26 12:59:32 27° 232° (SW) 13:02:25 435.350 FM
EO-79 18 Oct 13:01:16 13:05:27 56° 260° (W) 13:09:40 145.935-145.965
POLYITAN 1 18 Oct 13:05:21 13:09:30 50° 260° (W) 13:13:43 437.675
SPROUT 18 Oct 13:18:43 13:22:18 25° 95° (E) 13:25:49 437.525
QB50P2 18 Oct 13:26:07 13:29:45 27° 264° (W) 13:33:25 145.880/145.840
NANOSAT C BR1 18 Oct 13:31:43 13:35:24 29° 264° (W) 13:39:09 145.865
BEESAT 2 18 Oct 13:37:19 13:40:14 20° 112° (ESE) 13:43:12 435.950
M-CUBED/EXP-1 PRIME 18 Oct 13:37:50 13:41:03 38° 68° (ENE) 13:44:09 437.505
AO-85 18 Oct 13:40:46 13:42:41 13° 110° (ESE) 13:44:38 145.980
LO-87 18 Oct 13:40:47 13:43:39 22° 291° (WNW) 13:46:31 145.935 - 145.965
DUCHIFAT 1 18 Oct 13:44:05 13:47:33 24° 265° (W) 13:51:03 145.980
VELOX 1 18 Oct 13:45:14 13:49:15 33° 97° (E) 13:53:15 145.980
ESTCUBE 1 18 Oct 13:45:23 13:49:35 41° 289° (WNW) 13:53:46 437.505/2401.250
nSIGHT-1 18 Oct 13:53:21 13:55:35 17° 345° (NNW) 13:57:49 .
Oscar 19 18 Oct 13:57:24 14:02:28 59° 72° (ENE) 14:07:33 437.125/150
BEESAT 3 18 Oct 13:58:26 14:02:24 70° 303° (WNW) 14:06:26 437.485
BUGSAT 1 18 Oct 14:00:07 14:04:14 61° 259° (WSW) 14:08:27 437.445
RS-15 18 Oct 14:02:41 14:07:51 14° 266° (W) 14:12:55 29.354- 29.394
Gurwin Techsat 1B 18 Oct 14:10:21 14:15:30 54° 71° (ENE) 14:20:41 435.225
ISS 18 Oct 14:20:41 14:22:46 16° 349° (N) 14:24:50 437.550
AO-7 18 Oct 14:22:10 14:28:14 23° 52° (NE) 14:34:18 .
SPROUT 18 Oct 14:54:26 14:58:08 28° 291° (WNW) 15:01:49 437.525
50 SAT 18 Oct 14:55:54 14:59:12 62° 101° (ESE) 15:02:28 437.505
DX 1 18 Oct 14:58:40 15:02:56 50° 100° (E) 15:07:11 434.975-435.025
SO-50 18 Oct 15:09:12 15:09:51 10° 33° (NNE) 15:10:30 436.795
BEESAT 2 18 Oct 15:13:57 15:17:42 38° 309° (NW) 15:21:31 435.950
M-CUBED/EXP-1 PRIME 18 Oct 15:14:38 15:15:38 11° 262° (W) 15:16:38 437.505
AO-85 18 Oct 15:18:50 15:22:36 49° 307° (NW) 15:26:28 145.980
VELOX 1 18 Oct 15:22:00 15:25:31 23° 293° (WNW) 15:29:02 145.980
UKube-1 18 Oct 15:27:28 15:31:46 66° 101° (E) 15:36:04 .
nSIGHT-1 18 Oct 15:31:05 15:32:49 14° 6° (N) 15:34:34 .
MOZHAYETS 4 18 Oct 15:35:13 15:36:34 11° 89° (E) 15:37:55
Oscar 19 18 Oct 15:38:54 15:42:09 17° 269° (W) 15:45:24 437.125/150
BEESAT 3 18 Oct 15:40:17 15:40:42 10° 323° (NW) 15:41:08 437.485
ITUPSAT 1 18 Oct 15:42:49 15:44:41 12° 90° (E) 15:46:34 437.325
Gurwin Techsat 1B 18 Oct 15:52:03 15:55:45 19° 268° (W) 15:59:28 435.225
ISS 18 Oct 15:58:11 16:00:14 15° 10° (N) 16:02:17 437.550
BEESAT 18 Oct 15:58:38 16:01:58 19° 93° (E) 16:05:17 436.000
ITAMSAT 1 18 Oct 16:04:15 16:09:20 59° 72° (ENE) 16:14:28 435.822/435.867
AO-7 18 Oct 16:11:43 16:20:02 86° 252° (WSW) 16:28:23 .
DX 1 18 Oct 16:36:02 16:38:41 16° 297° (WNW) 16:41:20 434.975-435.025
SO-50 18 Oct 16:46:48 16:51:19 54° 53° (NE) 16:55:54 436.795
UKube-1 18 Oct 17:05:28 17:07:14 12° 298° (WNW) 17:09:00 .
nSIGHT-1 18 Oct 17:06:59 17:09:53 30° 26° (NNE) 17:12:45 .
MOZHAYETS 4 18 Oct 17:09:37 17:14:12 70° 285° (WNW) 17:18:43
PCSat 18 Oct 17:12:31 17:15:45 16° 40° (NE) 17:18:59 145.827
CUBESAT XI-V 18 Oct 17:15:18 17:19:18 29° 96° (E) 17:23:16 437.345
ITUPSAT 1 18 Oct 17:18:12 17:23:00 71° 286° (WNW) 17:27:44 437.325
ISS 18 Oct 17:34:13 17:37:21 42° 29° (NNE) 17:40:30 437.550
BEESAT 18 Oct 17:35:23 17:39:58 46° 289° (WNW) 17:44:30 436.000
XW-2B 18 Oct 17:42:19 17:43:47 12° 64° (ENE) 17:45:15 145.730 - 145.750
DOVE 4 18 Oct 17:44:52 17:48:57 62° 75° (ENE) 17:53:13 437.250
ITAMSAT 1 18 Oct 17:45:54 17:49:10 17° 268° (W) 17:52:29 435.822/435.867
CUTE-I 18 Oct 17:58:56 18:03:06 24° 64° (ENE) 18:07:17 437.470
XW-2C 18 Oct 18:03:46 18:06:42 21° 69° (ENE) 18:09:38 145.795 - 145.815
AO-7 18 Oct 18:09:00 18:13:52 17° 270° (W) 18:18:46 .
HO-68 18 Oct 18:20:54 18:26:14 23° 57° (ENE) 18:31:34 435.675
SO-50 18 Oct 18:28:18 18:31:23 18° 250° (WSW) 18:34:28 436.795
nSIGHT-1 18 Oct 18:43:12 18:46:10 35° 223° (SW) 18:49:09 .
CUBEBUG 2 18 Oct 18:46:19 18:47:28 11° 60° (ENE) 18:48:36 437.445
XW-2F 18 Oct 18:49:37 18:53:24 74° 75° (ENE) 18:57:11 145.980 - 146.000
LilacSat-2 18 Oct 18:50:15 18:54:05 87° 78° (ENE) 18:57:56 437.200
KAITUO 1B 18 Oct 18:51:34 18:55:16 59° 75° (ENE) 18:58:57 145.475/437.950
KKS-1 18 Oct 18:52:00 18:56:30 87° 98° (E) 19:01:00 437.445
CUBESAT XI-V 18 Oct 18:52:41 18:56:35 28° 292° (WNW) 19:00:28 437.345
PCSat 18 Oct 18:54:32 19:00:00 84° 61° (ENE) 19:05:24 145.827
XW-2D 18 Oct 19:00:18 19:04:06 73° 258° (WSW) 19:07:54 145.860 - 145.880
NUDT-PHONESAT 18 Oct 19:09:15 19:12:59 84° 259° (W) 19:16:43 437.300
ISS 18 Oct 19:11:01 19:13:41 23° 226° (SW) 19:16:19 437.550
XW-2B 18 Oct 19:13:47 19:17:30 50° 260° (W) 19:21:13 145.730 - 145.750
DOVE 4 18 Oct 19:26:22 19:27:09 10° 272° (W) 19:27:56 437.250
UWE-3 18 Oct 19:26:49 19:29:44 17° 64° (ENE) 19:32:39 435.000/436.395/437.385
STARS 18 Oct 19:30:43 19:35:12 88° 277° (W) 19:39:37 437.465
XW-2C 18 Oct 19:37:32 19:40:45 26° 264° (W) 19:43:58 145.795 - 145.815
CUTE-I 18 Oct 19:37:46 19:42:50 45° 261° (W) 19:47:57 437.470
CUTE 1.7 + AOD 2 18 Oct 19:39:59 19:44:10 60° 74° (ENE) 19:48:20 437.475
XW-2A 18 Oct 19:42:42 19:45:14 19° 69° (ENE) 19:47:45 145.665 - 145.685
SEEDS 18 Oct 19:51:18 19:55:19 48° 74° (ENE) 19:59:21 437.485
HO-68 18 Oct 20:06:05 20:13:14 74° 256° (WSW) 20:20:27 435.675
CUBEBUG 2 18 Oct 20:18:39 20:23:16 89° 249° (WSW) 20:28:03 437.445
YUBILEINY 18 Oct 20:18:58 20:25:50 24° 65° (ENE) 20:32:40 435.215
AAUSAT CUBESAT 2 18 Oct 20:21:30 20:25:25 45° 73° (ENE) 20:29:21 437.432
AO-73 18 Oct 20:23:10 20:27:06 29° 69° (ENE) 20:31:03 145.935
STRAND 1 18 Oct 20:30:43 20:35:26 35° 97° (E) 20:40:07 437.568
KKS-1 18 Oct 20:31:59 20:32:20 10° 301° (WNW) 20:32:42 437.445
PCSat 18 Oct 20:40:17 20:42:36 13° 258° (WSW) 20:44:55 145.827
ZACube-1 18 Oct 20:43:21 20:47:48 53° 73° (ENE) 20:52:17 437.345
UWE-3 18 Oct 21:01:10 21:05:42 54° 261° (W) 21:10:18 435.000/436.395/437.385
O/OREOS (USA 219) 18 Oct 21:03:57 21:07:14 20° 101° (E) 21:10:32 437.305
FO-29 18 Oct 21:07:20 21:12:08 19° 91° (E) 21:17:12 435.910
XW-2A 18 Oct 21:15:04 21:17:49 22° 265° (W) 21:20:33 145.665 - 145.685
CUTE 1.7 + AOD 2 18 Oct 21:18:59 21:20:21 11° 270° (W) 21:21:43 437.475
Oscar 11 18 Oct 21:23:53 21:28:14 88° 77° (ENE) 21:32:35 .
SEEDS 18 Oct 21:29:06 21:31:16 14° 269° (W) 21:33:25 437.485
EO-88 18 Oct 21:48:03 21:50:23 16° 67° (ENE) 21:52:44 145.990 - 145.960
Max Valier Satellite 18 Oct 21:52:29 21:55:36 25° 70° (ENE) 21:58:44 145.860
BEESAT 2 18 Oct 21:54:27 21:56:57 16° 42° (NE) 21:59:25 435.950
AAUSAT CUBESAT 2 18 Oct 21:58:54 22:01:06 14° 269° (W) 22:03:18 437.432
AO-73 18 Oct 21:59:21 22:03:15 27° 265° (W) 22:07:11 145.935
HO-68 18 Oct 21:59:51 22:02:06 12° 274° (W) 22:04:21 435.675
DELFI C3 18 Oct 22:07:39 22:11:28 56° 75° (ENE) 22:15:19 145.870
AO-85 18 Oct 22:09:21 22:12:34 19° 44° (NE) 22:15:56 145.980
STRAND 1 18 Oct 22:10:05 22:14:28 29° 294° (WNW) 22:18:50 437.568
YUBILEINY 18 Oct 22:14:45 22:23:31 75° 266° (W) 22:32:17 435.215
BEESAT 3 18 Oct 22:14:58 22:18:55 65° 55° (NE) 22:22:48 437.485
ZACube-1 18 Oct 22:21:42 22:24:22 15° 269° (W) 22:27:03 437.345
O/OREOS (USA 219) 18 Oct 22:42:01 22:46:19 40° 298° (WNW) 22:50:40 437.305
LO-87 18 Oct 22:46:03 22:46:14 10° 64° (ENE) 22:46:26 145.935 - 145.965
FO-29 18 Oct 22:50:47 22:57:37 80° 286° (WNW) 23:05:11 435.910
ESTCUBE 1 18 Oct 23:09:19 23:12:22 18° 65° (ENE) 23:15:25 437.505/2401.250
EO-88 18 Oct 23:20:29 23:23:46 31° 263° (W) 23:27:05 145.990 - 145.960
UNISAT 6 18 Oct 23:26:23 23:31:03 76° 103° (ESE) 23:35:33 437.425
Max Valier Satellite 18 Oct 23:26:32 23:29:23 21° 266° (W) 23:32:14 145.860
PRISM 18 Oct 23:30:37 23:34:22 33° 98° (E) 23:38:08 437.425
BEESAT 2 18 Oct 23:31:05 23:35:05 63° 240° (WSW) 23:39:01 435.950
TIGRISAT 18 Oct 23:41:44 23:46:24 82° 284° (WNW) 23:50:55 435.000
DELFI C3 18 Oct 23:46:07 23:46:33 10° 270° (W) 23:47:00 145.870
AO-85 18 Oct 23:48:46 23:53:19 64° 240° (WSW) 23:58:12 145.980
BEESAT 3 18 Oct 23:55:06 23:55:52 10° 252° (WSW) 23:56:38 437.485
AIST 2D 18 Oct 23:55:25 23:57:17 14° 92° (E) 23:59:09 435.315
RS-15 19 Oct 00:00:41 00:08:37 20° 98° (E) 00:16:32 29.354- 29.394
SPROUT 19 Oct 00:12:18 00:15:25 20° 66° (ENE) 00:18:32 437.525
YUBILEINY 19 Oct 00:14:53 00:18:40 14° 286° (WNW) 00:22:29 435.215
LO-87 19 Oct 00:15:38 00:19:08 54° 259° (W) 00:22:42 145.935 - 145.965
FO-29 19 Oct 00:38:00 00:41:49 16° 302° (WNW) 00:45:49 435.910
VELOX 1 19 Oct 00:42:29 00:46:16 29° 69° (ENE) 00:50:04 145.980
ESTCUBE 1 19 Oct 00:44:30 00:48:48 45° 261° (W) 00:53:08 437.505/2401.250
EO-79 19 Oct 00:46:14 00:49:38 23° 94° (E) 00:52:59 145.935-145.965
POLYITAN 1 19 Oct 00:50:20 00:53:52 25° 95° (E) 00:57:23 437.675
UNISAT 6 19 Oct 01:05:16 01:07:03 12° 299° (WNW) 01:08:50 437.425
PRISM 19 Oct 01:06:23 01:09:25 20° 293° (WNW) 01:12:28 437.425
QB50P2 19 Oct 01:10:02 01:14:10 46° 99° (E) 01:18:15 145.880/145.840
NANOSAT C BR1 19 Oct 01:15:11 01:19:15 42° 99° (E) 01:23:15 145.865
50 SAT 19 Oct 01:25:04 01:27:27 19° 69° (ENE) 01:29:51 437.505
DUCHIFAT 1 19 Oct 01:26:54 01:31:02 50° 99° (E) 01:35:07 145.980
AIST 2D 19 Oct 01:27:27 01:30:34 31° 288° (WNW) 01:33:40 435.315
BUGSAT 1 19 Oct 01:42:30 01:45:31 19° 93° (E) 01:48:30 437.445
SPROUT 19 Oct 01:47:05 01:51:03 36° 263° (W) 01:55:02 437.525
DX 1 19 Oct 01:54:00 01:58:04 43° 71° (ENE) 02:02:12 434.975-435.025
RS-15 19 Oct 02:06:52 02:19:08 81° 119° (ESE) 02:31:27 29.354- 29.394
Oscar 19 19 Oct 02:09:43 02:13:28 20° 93° (E) 02:17:10 437.125/150
VELOX 1 19 Oct 02:19:04 02:22:40 25° 265° (W) 02:26:18 145.980
UKube-1 19 Oct 02:21:34 02:25:45 55° 73° (ENE) 02:29:58 .
EO-79 19 Oct 02:21:37 02:25:23 31° 291° (WNW) 02:29:07 145.935-145.965
POLYITAN 1 19 Oct 02:25:57 02:29:36 28° 291° (WNW) 02:33:13 437.675
Gurwin Techsat 1B 19 Oct 02:27:12 02:31:11 21° 93° (E) 02:35:09 435.225
MOZHAYETS 4 19 Oct 02:37:11 02:39:06 12° 61° (ENE) 02:41:01
QB50P2 19 Oct 02:46:56 02:49:34 16° 296° (WNW) 02:52:11 145.880/145.840
ITUPSAT 1 19 Oct 02:49:14 02:52:08 16° 62° (ENE) 02:55:02 437.325
M-CUBED/EXP-1 PRIME 19 Oct 02:49:16 02:52:23 28° 103° (ESE) 02:55:39 437.505
NANOSAT C BR1 19 Oct 02:51:48 02:54:36 17° 295° (WNW) 02:57:24 145.865
50 SAT 19 Oct 02:57:10 02:59:40 20° 265° (W) 03:02:10 437.505
DUCHIFAT 1 19 Oct 03:03:50 03:06:16 15° 296° (WNW) 03:08:40 145.980
BEESAT 19 Oct 03:04:56 03:08:39 23° 65° (ENE) 03:12:23 436.000
BUGSAT 1 19 Oct 03:17:04 03:20:58 36° 290° (WNW) 03:24:49 437.445
DX 1 19 Oct 03:31:42 03:34:27 17° 267° (W) 03:37:14 434.975-435.025
Oscar 19 19 Oct 03:48:05 03:53:01 48° 289° (WNW) 03:57:54 437.125/150
UKube-1 19 Oct 04:00:08 04:02:06 13° 269° (W) 04:04:04 .
Gurwin Techsat 1B 19 Oct 04:06:15 04:11:22 49° 289° (WNW) 04:16:28 435.225
NO-84 19 Oct 04:10:07 04:14:07 39° 131° (SE) 04:18:05 435.350 FM
MOZHAYETS 4 19 Oct 04:11:00 04:15:37 74° 258° (WSW) 04:20:17
AO-7 19 Oct 04:13:47 04:20:59 32° 96° (E) 04:28:09 .
ITAMSAT 1 19 Oct 04:17:48 04:21:40 21° 93° (E) 04:25:31 435.822/435.867
CUBESAT XI-V 19 Oct 04:18:33 04:22:32 29° 69° (ENE) 04:26:30 437.345
RS-15 19 Oct 04:21:46 04:33:01 38° 324° (NW) 04:44:10 29.354- 29.394
M-CUBED/EXP-1 PRIME 19 Oct 04:24:07 04:26:40 19° 296° (WNW) 04:29:20 437.505
ITUPSAT 1 19 Oct 04:24:42 04:29:27 60° 259° (W) 04:34:13 437.325
BEESAT 19 Oct 04:41:42 04:46:10 39° 262° (W) 04:50:41 436.000
DOVE 4 19 Oct 05:43:22 05:46:58 20° 93° (E) 05:50:38 437.250
NO-84 19 Oct 05:47:35 05:51:34 36° 327° (NNW) 05:55:28 435.350 FM
KKS-1 19 Oct 05:49:41 05:54:06 81° 76° (ENE) 05:58:34 437.445
CUBESAT XI-V 19 Oct 05:55:51 05:59:50 28° 265° (W) 06:03:48 437.345
ITAMSAT 1 19 Oct 05:56:20 06:01:23 49° 290° (WNW) 06:06:24 435.822/435.867
AO-7 19 Oct 06:06:00 06:14:05 59° 295° (WNW) 06:22:10 .
STARS 19 Oct 06:26:52 06:31:15 82° 74° (ENE) 06:35:41 437.465
XW-2D 19 Oct 06:34:47 06:35:52 11° 91° (E) 06:36:56 145.860 - 145.880
